Time,TemperatureF,DewpointF,PressureIn,WindDirection,WindDirectionDegrees,WindSpeedMPH,WindSpeedGustMPH,Humidity,HourlyPrecipIn,Conditions,Clouds,dailyrainin,SoftwareType,DateUTC
2013-09-22 00:02:00,54.7,51.5,30.34,WNW,292,0.0,0.0,89,0.00,,,0.00,LWC V2.11 B50,2013-09-21 22:02:00,
2013-09-22 00:32:00,54.1,50.9,30.34,WNW,292,0.0,0.0,89,0.00,,,0.00,LWC V2.11 B50,2013-09-21 22:32:00,
2013-09-22 01:02:00,54.0,51.1,30.34,WNW,292,0.0,0.0,90,0.00,,,0.00,LWC V2.11 B50,2013-09-21 23:02:00,
2013-09-22 01:32:00,54.0,51.1,30.34,WNW,292,0.0,0.0,90,0.00,,,0.00,LWC V2.11 B50,2013-09-21 23:32:00,
2013-09-22 02:02:00,54.3,51.4,30.34,WNW,292,0.0,0.0,90,0.00,,,0.00,LWC V2.11 B50,2013-09-22 00:02:00,
2013-09-22 02:32:00,55.2,52.3,30.35,WNW,292,0.0,0.0,90,0.00,,,0.00,LWC V2.11 B50,2013-09-22 00:32:00,
2013-09-22 03:02:00,55.8,52.9,30.34,West,270,0.0,0.0,90,0.00,,,0.00,LWC V2.11 B50,2013-09-22 01:02:00,
2013-09-22 03:30:00,55.9,53.3,30.34,NW,314,0.0,0.0,91,0.00,,,0.00,LWC V2.11 B50,2013-09-22 01:30:00,
2013-09-22 03:32:00,55.9,53.3,30.34,NW,315,0.0,0.0,91,0.00,,,0.00,LWC V2.11 B50,2013-09-22 01:32:00,
2013-09-22 03:40:00,55.9,53.3,30.34,NNW,329,0.0,0.0,91,0.00,,,0.00,LWC V2.11 B50,2013-09-22 01:40:00,
2013-09-22 03:50:00,55.9,53.3,30.34,SSW,204,0.0,0.0,91,0.00,,,0.00,LWC V2.11 B50,2013-09-22 01:50:00,
2013-09-22 04:00:00,55.9,53.3,30.34,NE,34,0.0,0.0,91,0.00,,,0.00,LWC V2.11 B50,2013-09-22 02:00:00,
2013-09-22 04:10:00,55.9,53.3,30.34,NE,39,0.0,0.0,91,0.00,,,0.00,LWC V2.11 B50,2013-09-22 02:10:00,
2013-09-22 04:20:00,56.3,53.7,30.34,NW,317,0.0,0.0,91,0.00,,,0.00,LWC V2.11 B50,2013-09-22 02:20:00,
2013-09-22 04:30:00,56.5,53.9,30.34,NW,315,0.0,0.0,91,0.00,,,0.00,LWC V2.11 B50,2013-09-22 02:30:00,
2013-09-22 04:32:00,56.5,53.9,30.34,NW,315,0.0,0.0,91,0.00,,,0.00,LWC V2.11 B50,2013-09-22 02:32:00,
2013-09-22 04:40:00,56.5,53.9,30.34,NW,315,0.0,0.0,91,0.00,,,0.00,LWC V2.11 B50,2013-09-22 02:40:00,
2013-09-22 04:50:00,56.5,53.9,30.34,NW,315,0.0,0.0,91,0.00,,,0.00,LWC V2.11 B50,2013-09-22 02:50:00,
2013-09-22 05:00:00,56.5,53.9,30.34,NW,315,0.0,0.0,91,0.00,,,0.00,LWC V2.11 B50,2013-09-22 03:00:00,
2013-09-22 05:10:00,56.5,53.9,30.34,NW,315,0.0,0.0,91,0.00,,,0.00,LWC V2.11 B50,2013-09-22 03:10:00,
2013-09-22 05:20:00,56.8,54.2,30.35,NW,315,0.0,0.0,91,0.00,,,0.00,LWC V2.11 B50,2013-09-22 03:20:00,
2013-09-22 05:32:00,56.8,54.2,30.34,NW,315,0.0,0.0,91,0.00,,,0.00,LWC V2.11 B50,2013-09-22 03:32:00,
2013-09-22 06:02:00,57.0,54.4,30.34,SSW,202,0.0,0.0,91,0.00,,,0.00,LWC V2.11 B50,2013-09-22 04:02:00,
2013-09-22 06:32:00,56.8,54.4,30.35,SSW,202,0.0,0.0,91,0.00,,,0.00,LWC V2.11 B50,2013-09-22 04:32:00,
2013-09-22 07:00:00,57.0,54.4,30.34,WSW,247,0.0,0.0,91,0.00,,,0.00,LWC V2.11 B50,2013-09-22 05:00:00,
2013-09-22 07:02:00,57.0,54.4,30.34,WSW,247,0.0,0.0,91,0.00,,,0.00,LWC V2.11 B50,2013-09-22 05:02:00,
2013-09-22 07:10:00,57.0,54.4,30.34,WSW,247,0.0,0.0,91,0.00,,,0.00,LWC V2.11 B50,2013-09-22 05:10:00,
2013-09-22 07:20:00,56.8,54.2,30.34,WSW,247,0.0,0.0,91,0.00,,,0.00,LWC V2.11 B50,2013-09-22 05:20:00,
2013-09-22 07:30:00,57.0,54.4,30.34,WSW,247,0.0,0.0,91,0.00,,,0.00,LWC V2.11 B50,2013-09-22 05:30:00,
2013-09-22 07:40:00,56.8,54.2,30.35,WSW,247,0.0,0.0,91,0.00,,,0.00,LWC V2.11 B50,2013-09-22 05:40:00,
2013-09-22 07:50:00,56.8,54.2,30.35,WSW,247,0.0,0.0,91,0.00,,,0.00,LWC V2.11 B50,2013-09-22 05:50:00,
2013-09-22 08:03:00,57.0,54.4,30.35,SW,225,0.0,0.0,91,0.00,,,0.00,LWC V2.11 B50,2013-09-22 06:03:00,
2013-09-22 08:33:00,58.6,56.3,30.36,NW,315,0.0,0.0,92,0.00,,,0.00,LWC V2.11 B50,2013-09-22 06:33:00,
2013-09-22 09:03:00,59.7,57.1,30.37,NNW,337,0.0,0.0,91,0.00,,,0.00,LWC V2.11 B50,2013-09-22 07:03:00,
2013-09-22 09:33:00,61.0,58.4,30.37,East,90,0.0,0.0,91,0.00,,,0.00,LWC V2.11 B50,2013-09-22 07:33:00,
2013-09-22 10:03:00,62.4,59.8,30.38,NW,315,0.0,0.0,91,0.00,,,0.00,LWC V2.11 B50,2013-09-22 08:03:00,
2013-09-22 10:33:00,64.2,61.0,30.38,North,0,0.0,0.0,89,0.00,,,0.00,LWC V2.11 B50,2013-09-22 08:33:00,
2013-09-22 11:03:00,66.7,63.0,30.38,NE,45,0.0,0.0,88,0.00,,,0.00,LWC V2.11 B50,2013-09-22 09:03:00,
2013-09-22 11:33:00,68.4,63.7,30.37,ENE,67,0.0,0.0,85,0.00,,,0.00,LWC V2.11 B50,2013-09-22 09:33:00,
2013-09-22 12:03:00,70.2,64.0,30.36,NNW,337,0.0,0.0,81,0.00,,,0.00,LWC V2.11 B50,2013-09-22 10:03:00,
2013-09-22 12:33:00,70.9,63.6,30.37,ESE,112,0.0,0.0,78,0.00,,,0.00,LWC V2.11 B50,2013-09-22 10:33:00,
2013-09-22 13:03:00,69.6,62.0,30.37,NNE,22,0.0,0.0,77,0.00,,,0.00,LWC V2.11 B50,2013-09-22 11:03:00,
2013-09-22 13:33:00,70.3,62.3,30.36,ENE,67,0.0,0.0,76,0.00,,,0.00,LWC V2.11 B50,2013-09-22 11:33:00,
2013-09-22 14:03:00,70.3,62.0,30.36,WNW,292,0.0,0.0,75,0.00,,,0.00,LWC V2.11 B50,2013-09-22 12:03:00,
2013-09-22 14:33:00,70.5,61.8,30.37,NNW,337,0.0,0.0,74,0.00,,,0.00,LWC V2.11 B50,2013-09-22 12:33:00,
2013-09-22 15:03:00,70.2,61.8,30.36,NE,45,0.0,0.0,75,0.00,,,0.00,LWC V2.11 B50,2013-09-22 13:03:00,
2013-09-22 15:33:00,70.7,61.6,30.36,NNE,22,0.0,0.0,73,0.00,,,0.00,LWC V2.11 B50,2013-09-22 13:33:00,
2013-09-22 16:03:00,71.2,62.1,30.36,West,270,0.0,0.0,73,0.00,,,0.00,LWC V2.11 B50,2013-09-22 14:03:00,
2013-09-22 16:33:00,71.4,61.5,30.35,NNW,337,0.0,0.0,71,0.00,,,0.00,LWC V2.11 B50,2013-09-22 14:33:00,
2013-09-22 17:03:00,70.5,61.4,30.35,ESE,112,0.0,0.0,73,0.00,,,0.00,LWC V2.11 B50,2013-09-22 15:03:00,
2013-09-22 17:33:00,69.6,61.3,30.35,NW,315,0.0,0.0,75,0.00,,,0.00,LWC V2.11 B50,2013-09-22 15:33:00,
2013-09-22 18:03:00,68.5,60.7,30.34,North,0,0.0,0.0,76,0.00,,,0.00,LWC V2.11 B50,2013-09-22 16:03:00,
2013-09-22 18:33:00,67.8,60.8,30.34,SSE,157,0.0,0.0,78,0.00,,,0.00,LWC V2.11 B50,2013-09-22 16:33:00,
2013-09-22 19:03:00,66.7,60.1,30.34,SSE,157,0.0,0.0,79,0.00,,,0.00,LWC V2.11 B50,2013-09-22 17:03:00,
2013-09-22 19:33:00,65.8,59.9,30.34,NW,315,0.0,0.0,81,0.00,,,0.00,LWC V2.11 B50,2013-09-22 17:33:00,
2013-09-22 20:03:00,64.9,59.6,30.34,NW,315,0.0,0.0,83,0.00,,,0.00,LWC V2.11 B50,2013-09-22 18:03:00,
2013-09-22 20:33:00,64.6,59.6,30.34,NW,315,0.0,0.0,84,0.00,,,0.00,LWC V2.11 B50,2013-09-22 18:33:00,
2013-09-22 21:03:00,64.2,59.6,30.34,NNW,337,0.0,0.0,85,0.00,,,0.00,LWC V2.11 B50,2013-09-22 19:03:00,
2013-09-22 21:33:00,64.2,59.6,30.34,North,0,0.0,0.0,85,0.00,,,0.00,LWC V2.11 B50,2013-09-22 19:33:00,
2013-09-22 22:03:00,63.7,59.4,30.34,NW,315,0.0,0.0,86,0.00,,,0.00,LWC V2.11 B50,2013-09-22 20:03:00,
2013-09-22 22:33:00,63.5,59.6,30.34,ENE,67,0.0,0.0,87,0.00,,,0.00,LWC V2.11 B50,2013-09-22 20:33:00,
2013-09-22 23:03:00,63.3,59.4,30.34,ENE,67,0.0,0.0,87,0.00,,,0.00,LWC V2.11 B50,2013-09-22 21:03:00,
2013-09-22 23:33:00,63.1,59.6,30.34,NNW,337,0.0,0.0,88,0.00,,,0.00,LWC V2.11 B50,2013-09-22 21:33:00,